Time,TemperatureF,DewpointF,PressureIn,WindDirection,WindDirectionDegrees,WindSpeedMPH,WindSpeedGustMPH,Humidity,HourlyPrecipIn,Conditions,Clouds,dailyrainin,SolarRadiationWatts/m^2,SoftwareType,DateUTC
2013-02-07 00:06:00,29.8,14.0,30.23,WSW,257,2.0,12.0,52,0.00,,,0.00,0,weatherlink.com 1.10,2013-02-07 05:06:00,
2013-02-07 00:21:00,29.4,14.0,30.24,NW,308,2.0,9.0,54,0.00,,,0.00,0,weatherlink.com 1.10,2013-02-07 05:21:00,
2013-02-07 00:36:00,29.1,14.0,30.25,NNW,338,5.0,11.0,54,0.00,,,0.00,0,weatherlink.com 1.10,2013-02-07 05:36:00,
2013-02-07 00:51:00,29.1,14.0,30.26,WNW,290,4.0,8.0,54,0.00,,,0.00,0,weatherlink.com 1.10,2013-02-07 05:51:00,
2013-02-07 01:06:00,28.7,14.0,30.27,WNW,297,2.0,8.0,54,0.00,,,0.00,0,weatherlink.com 1.10,2013-02-07 06:06:00,
2013-02-07 01:21:00,28.3,14.0,30.26,WNW,291,4.0,7.0,56,0.00,,,0.00,0,weatherlink.com 1.10,2013-02-07 06:21:00,
2013-02-07 01:36:00,28.3,14.0,30.26,WNW,285,2.0,7.0,55,0.00,,,0.00,0,weatherlink.com 1.10,2013-02-07 06:36:00,
2013-02-07 01:51:00,28.1,14.0,30.27,NW,308,2.0,6.0,56,0.00,,,0.00,0,weatherlink.com 1.10,2013-02-07 06:51:00,
2013-02-07 02:06:00,28.3,14.0,30.28,NW,308,4.0,8.0,56,0.00,,,0.00,0,weatherlink.com 1.10,2013-02-07 07:06:00,
2013-02-07 02:21:00,28.3,14.0,30.27,NW,326,7.0,12.0,56,0.00,,,0.00,0,weatherlink.com 1.10,2013-02-07 07:21:00,
2013-02-07 02:36:00,28.1,14.0,30.27,West,280,1.0,8.0,57,0.00,,,0.00,0,weatherlink.com 1.10,2013-02-07 07:36:00,
2013-02-07 02:51:00,28.1,14.0,30.28,WNW,298,4.0,8.0,57,0.00,,,0.00,0,weatherlink.com 1.10,2013-02-07 07:51:00,
2013-02-07 03:06:00,28.0,15.0,30.29,NW,311,0.0,6.0,58,0.00,,,0.00,0,weatherlink.com 1.10,2013-02-07 08:06:00,
2013-02-07 03:21:00,27.9,15.0,30.30,West,274,2.0,5.0,59,0.00,,,0.00,0,weatherlink.com 1.10,2013-02-07 08:21:00,
2013-02-07 03:36:00,27.8,16.0,30.31,WNW,293,1.0,6.0,62,0.00,,,0.00,0,weatherlink.com 1.10,2013-02-07 08:36:00,
2013-02-07 03:51:00,27.6,18.0,30.31,NW,309,0.0,4.0,66,0.00,,,0.00,0,weatherlink.com 1.10,2013-02-07 08:51:00,
2013-02-07 04:06:00,27.4,17.0,30.32,NNW,327,3.0,6.0,66,0.00,,,0.00,0,weatherlink.com 1.10,2013-02-07 09:06:00,
2013-02-07 04:21:00,27.1,17.0,30.32,North,2,2.0,6.0,67,0.00,,,0.00,0,weatherlink.com 1.10,2013-02-07 09:21:00,
2013-02-07 04:36:00,26.6,16.0,30.32,NNW,327,0.0,9.0,65,0.00,,,0.00,0,weatherlink.com 1.10,2013-02-07 09:36:00,
2013-02-07 04:51:00,26.3,16.0,30.33,North,11,3.0,8.0,65,0.00,,,0.00,0,weatherlink.com 1.10,2013-02-07 09:51:00,
2013-02-07 05:06:00,26.0,16.0,30.34,North,7,3.0,7.0,65,0.00,,,0.00,0,weatherlink.com 1.10,2013-02-07 10:06:00,
2013-02-07 05:21:00,25.8,15.0,30.34,North,349,2.0,4.0,65,0.00,,,0.00,0,weatherlink.com 1.10,2013-02-07 10:21:00,
2013-02-07 05:36:00,25.6,15.0,30.35,North,353,2.0,9.0,65,0.00,,,0.00,0,weatherlink.com 1.10,2013-02-07 10:36:00,
2013-02-07 05:51:00,25.5,15.0,30.36,NNW,336,2.0,6.0,64,0.00,,,0.00,0,weatherlink.com 1.10,2013-02-07 10:51:00,
2013-02-07 06:07:00,25.4,15.0,30.36,North,7,0.0,7.0,64,0.00,,,0.00,0,weatherlink.com 1.10,2013-02-07 11:07:00,
2013-02-07 06:22:00,25.2,14.0,30.37,NNW,344,0.0,5.0,63,0.00,,,0.00,0,weatherlink.com 1.10,2013-02-07 11:22:00,
2013-02-07 06:37:00,25.1,14.0,30.38,NW,316,0.0,5.0,63,0.00,,,0.00,0,weatherlink.com 1.10,2013-02-07 11:37:00,
2013-02-07 06:52:00,25.0,14.0,30.38,WNW,285,0.0,6.0,63,0.00,,,0.00,7,weatherlink.com 1.10,2013-02-07 11:52:00,
2013-02-07 07:07:00,25.1,14.0,30.39,NNW,338,0.0,5.0,63,0.00,,,0.00,14,weatherlink.com 1.10,2013-02-07 12:07:00,
2013-02-07 07:22:00,25.4,14.0,30.39,NNW,341,1.0,3.0,63,0.00,,,0.00,21,weatherlink.com 1.10,2013-02-07 12:22:00,
2013-02-07 07:37:00,25.9,14.0,30.41,West,281,0.0,5.0,60,0.00,,,0.00,40,weatherlink.com 1.10,2013-02-07 12:37:00,
2013-02-07 07:52:00,26.0,13.0,30.42,NW,323,0.0,6.0,57,0.00,,,0.00,42,weatherlink.com 1.10,2013-02-07 12:52:00,
2013-02-07 08:07:00,26.2,13.0,30.42,WNW,303,2.0,8.0,58,0.00,,,0.00,114,weatherlink.com 1.10,2013-02-07 13:07:00,
2013-02-07 08:22:00,26.4,13.0,30.43,NW,311,1.0,7.0,58,0.00,,,0.00,79,weatherlink.com 1.10,2013-02-07 13:22:00,
2013-02-07 08:37:00,26.9,14.0,30.44,North,353,5.0,7.0,58,0.00,,,0.00,188,weatherlink.com 1.10,2013-02-07 13:37:00,
2013-02-07 08:52:00,27.3,13.0,30.43,NNW,327,3.0,9.0,54,0.00,,,0.00,264,weatherlink.com 1.10,2013-02-07 13:52:00,
2013-02-07 09:07:00,27.4,13.0,30.43,NW,316,3.0,11.0,54,0.00,,,0.00,315,weatherlink.com 1.10,2013-02-07 14:07:00,
2013-02-07 09:22:00,27.1,13.0,30.45,West,262,1.0,11.0,56,0.00,,,0.00,306,weatherlink.com 1.10,2013-02-07 14:22:00,
2013-02-07 09:37:00,26.9,11.0,30.45,SW,224,2.0,11.0,52,0.00,,,0.00,248,weatherlink.com 1.10,2013-02-07 14:37:00,
2013-02-07 09:52:00,26.9,11.0,30.45,NNW,333,3.0,13.0,52,0.00,,,0.00,213,weatherlink.com 1.10,2013-02-07 14:52:00,
2013-02-07 10:07:00,26.5,12.0,30.46,North,353,5.0,9.0,55,0.00,,,0.00,186,weatherlink.com 1.10,2013-02-07 15:07:00,
2013-02-07 10:22:00,26.2,11.0,30.46,NW,324,3.0,12.0,53,0.00,,,0.00,237,weatherlink.com 1.10,2013-02-07 15:22:00,
2013-02-07 10:37:00,27.0,12.0,30.47,North,350,5.0,9.0,54,0.00,,,0.00,394,weatherlink.com 1.10,2013-02-07 15:37:00,
2013-02-07 10:52:00,27.2,11.0,30.48,NNW,329,4.0,12.0,51,0.00,,,0.00,489,weatherlink.com 1.10,2013-02-07 15:52:00,
2013-02-07 11:07:00,27.4,12.0,30.47,North,349,3.0,13.0,52,0.00,,,0.00,510,weatherlink.com 1.10,2013-02-07 16:07:00,
2013-02-07 11:22:00,27.9,12.0,30.47,WNW,301,2.0,10.0,52,0.00,,,0.00,545,weatherlink.com 1.10,2013-02-07 16:22:00,
2013-02-07 11:37:00,28.0,12.0,30.46,NW,316,4.0,14.0,52,0.00,,,0.00,578,weatherlink.com 1.10,2013-02-07 16:37:00,
2013-02-07 11:52:00,27.4,13.0,30.46,WSW,237,3.0,13.0,55,0.00,,,0.00,529,weatherlink.com 1.10,2013-02-07 16:52:00,
2013-02-07 12:07:00,27.1,12.0,30.46,WNW,283,4.0,11.0,53,0.00,,,0.00,473,weatherlink.com 1.10,2013-02-07 17:07:00,
2013-02-07 12:22:00,27.8,13.0,30.45,NNW,330,2.0,12.0,54,0.00,,,0.00,417,weatherlink.com 1.10,2013-02-07 17:22:00,
2013-02-07 12:37:00,27.2,13.0,30.45,WNW,297,5.0,11.0,55,0.00,,,0.00,559,weatherlink.com 1.10,2013-02-07 17:37:00,
2013-02-07 12:53:00,26.7,12.0,30.44,North,352,6.0,9.0,54,0.00,,,0.00,399,weatherlink.com 1.10,2013-02-07 17:53:00,
2013-02-07 13:08:00,27.3,13.0,30.44,North,1,4.0,8.0,54,0.00,,,0.00,475,weatherlink.com 1.10,2013-02-07 18:08:00,
2013-02-07 13:23:00,27.9,13.0,30.44,North,7,5.0,11.0,54,0.00,,,0.00,487,weatherlink.com 1.10,2013-02-07 18:23:00,
2013-02-07 13:39:00,27.2,13.0,30.44,NNW,336,6.0,14.0,56,0.00,,,0.00,302,weatherlink.com 1.10,2013-02-07 18:39:00,
2013-02-07 13:53:00,27.0,14.0,30.43,NNE,18,3.0,9.0,58,0.00,,,0.00,371,weatherlink.com 1.10,2013-02-07 18:53:00,
2013-02-07 14:08:00,26.7,14.0,30.43,NNE,16,0.0,8.0,59,0.00,,,0.00,350,weatherlink.com 1.10,2013-02-07 19:08:00,
2013-02-07 14:23:00,27.1,14.0,30.43,NW,326,3.0,8.0,58,0.00,,,0.00,301,weatherlink.com 1.10,2013-02-07 19:23:00,
2013-02-07 14:38:00,26.4,14.0,30.43,NNE,14,2.0,9.0,59,0.00,,,0.00,169,weatherlink.com 1.10,2013-02-07 19:38:00,
2013-02-07 14:53:00,26.1,14.0,30.44,North,2,3.0,7.0,60,0.00,,,0.00,100,weatherlink.com 1.10,2013-02-07 19:53:00,
2013-02-07 15:08:00,25.7,13.0,30.44,NNW,339,1.0,7.0,60,0.00,,,0.00,102,weatherlink.com 1.10,2013-02-07 20:08:00,
2013-02-07 15:23:00,25.2,13.0,30.44,North,357,2.0,8.0,61,0.00,,,0.00,83,weatherlink.com 1.10,2013-02-07 20:23:00,
2013-02-07 15:38:00,25.3,14.0,30.44,NNE,16,0.0,5.0,63,0.00,,,0.00,81,weatherlink.com 1.10,2013-02-07 20:38:00,
2013-02-07 15:53:00,25.1,14.0,30.44,NNE,18,7.0,8.0,63,0.00,,,0.00,81,weatherlink.com 1.10,2013-02-07 20:53:00,
2013-02-07 16:08:00,25.1,14.0,30.44,ENE,59,5.0,5.0,64,0.00,,,0.00,62,weatherlink.com 1.10,2013-02-07 21:08:00,
2013-02-07 16:23:00,25.1,15.0,30.44,NW,320,0.0,3.0,65,0.00,,,0.00,47,weatherlink.com 1.10,2013-02-07 21:23:00,
2013-02-07 16:38:00,25.0,15.0,30.44,NNE,25,0.0,6.0,67,0.00,,,0.00,26,weatherlink.com 1.10,2013-02-07 21:38:00,
2013-02-07 16:53:00,24.8,16.0,30.45,NNE,25,0.0,3.0,69,0.00,,,0.00,14,weatherlink.com 1.10,2013-02-07 21:53:00,
2013-02-07 17:08:00,24.6,16.0,30.45,NNE,25,0.0,2.0,69,0.00,,,0.00,0,weatherlink.com 1.10,2013-02-07 22:08:00,
2013-02-07 17:23:00,24.4,16.0,30.46,NNE,25,0.0,0.0,70,0.00,,,0.00,0,weatherlink.com 1.10,2013-02-07 22:23:00,
2013-02-07 17:38:00,24.1,16.0,30.46,NNE,25,0.0,0.0,71,0.00,,,0.00,0,weatherlink.com 1.10,2013-02-07 22:38:00,
2013-02-07 17:53:00,23.7,16.0,30.46,NNE,25,0.0,0.0,72,0.00,,,0.00,0,weatherlink.com 1.10,2013-02-07 22:53:00,
2013-02-07 18:08:00,23.1,16.0,30.46,NNE,25,0.0,0.0,74,0.00,,,0.00,0,weatherlink.com 1.10,2013-02-07 23:08:00,
2013-02-07 18:23:00,22.6,16.0,30.46,NNE,25,0.0,0.0,76,0.00,,,0.00,0,weatherlink.com 1.10,2013-02-07 23:23:00,
2013-02-07 18:38:00,22.2,16.0,30.47,NNE,25,0.0,0.0,77,0.00,,,0.00,0,weatherlink.com 1.10,2013-02-07 23:38:00,
2013-02-07 18:53:00,22.0,16.0,30.47,NNE,25,0.0,0.0,78,0.00,,,0.00,0,weatherlink.com 1.10,2013-02-07 23:53:00,
2013-02-07 19:08:00,21.8,16.0,30.47,NNE,25,0.0,0.0,78,0.00,,,0.00,0,weatherlink.com 1.10,2013-02-08 00:08:00,
2013-02-07 19:23:00,21.5,16.0,30.47,NNE,25,0.0,1.0,80,0.00,,,0.00,0,weatherlink.com 1.10,2013-02-08 00:23:00,
2013-02-07 19:38:00,21.4,16.0,30.47,NNE,25,0.0,0.0,81,0.00,,,0.00,0,weatherlink.com 1.10,2013-02-08 00:38:00,
2013-02-07 19:53:00,21.9,17.0,30.46,NNE,25,0.0,0.0,82,0.00,,,0.00,0,weatherlink.com 1.10,2013-02-08 00:53:00,
2013-02-07 20:08:00,22.2,18.0,30.47,NNE,25,0.0,0.0,83,0.00,,,0.00,0,weatherlink.com 1.10,2013-02-08 01:08:00,
2013-02-07 20:23:00,22.9,19.0,30.46,NNE,25,0.0,0.0,83,0.00,,,0.00,0,weatherlink.com 1.10,2013-02-08 01:23:00,
2013-02-07 20:38:00,23.9,20.0,30.46,NNE,25,0.0,0.0,83,0.00,,,0.00,0,weatherlink.com 1.10,2013-02-08 01:38:00,
2013-02-07 20:53:00,24.4,20.0,30.46,NNE,25,0.0,0.0,83,0.00,,,0.00,0,weatherlink.com 1.10,2013-02-08 01:53:00,
2013-02-07 21:08:00,24.9,21.0,30.45,NNE,25,0.0,0.0,84,0.00,,,0.00,0,weatherlink.com 1.10,2013-02-08 02:08:00,
2013-02-07 21:23:00,25.6,21.0,30.45,NNE,25,0.0,1.0,84,0.00,,,0.00,0,weatherlink.com 1.10,2013-02-08 02:23:00,
2013-02-07 21:38:00,26.2,22.0,30.45,NNE,25,0.0,1.0,84,0.00,,,0.00,0,weatherlink.com 1.10,2013-02-08 02:38:00,
2013-02-07 21:53:00,26.7,23.0,30.44,NNE,25,0.0,1.0,84,0.00,,,0.00,0,weatherlink.com 1.10,2013-02-08 02:53:00,
2013-02-07 22:08:00,27.1,23.0,30.44,NNE,25,2.0,2.0,83,0.00,,,0.00,0,weatherlink.com 1.10,2013-02-08 03:08:00,
2013-02-07 22:23:00,27.3,23.0,30.44,NNE,25,0.0,0.0,83,0.00,,,0.00,0,weatherlink.com 1.10,2013-02-08 03:23:00,
2013-02-07 22:38:00,27.5,23.0,30.45,NNE,25,0.0,1.0,82,0.00,,,0.00,0,weatherlink.com 1.10,2013-02-08 03:38:00,
2013-02-07 22:53:00,27.7,23.0,30.45,NNE,25,0.0,0.0,82,0.00,,,0.00,0,weatherlink.com 1.10,2013-02-08 03:53:00,
2013-02-07 23:08:00,27.7,23.0,30.46,NNE,25,0.0,0.0,82,0.00,,,0.00,0,weatherlink.com 1.10,2013-02-08 04:08:00,
2013-02-07 23:23:00,27.8,23.0,30.45,NNE,25,0.0,1.0,82,0.00,,,0.00,0,weatherlink.com 1.10,2013-02-08 04:23:00,
2013-02-07 23:38:00,28.0,24.0,30.44,ENE,57,0.0,4.0,83,0.00,,,0.00,0,weatherlink.com 1.10,2013-02-08 04:38:00,
2013-02-07 23:53:00,28.4,24.0,30.44,ENE,62,0.0,3.0,82,0.00,,,0.00,0,weatherlink.com 1.10,2013-02-08 04:53:00,